Showing default

GAOFEN 1-02, 43259

Orbit data source: Space-Track

GAOFEN 1-02, 43259 is a payload satellite owned by GGKGJ (CN) in SSO that was launched on Sat, 31 Mar 2018 UTC via a CHANG ZHENG 4C launch vehicle from the Taiyaun Space Center, China (TSC). Payload-class satellites include a variety of spacecraft equipped with specific instruments for various scientific and technological missions. These include communications satellites like Starlink; space stations such as the ISS; scientific satellites like the Hubble; Earth observation satellites from companies like Planet Labs, Umbra, and HawkEye 360; GPS; miniature CubeSats for education and research; and military/defense satellites.

Loading next visibility...
Identifier
43259, 2018-031A
Orbit
SSO
Country
Flag of CNCN / PRC
Related business
Manufacturer
DFH
Mission
Operational Civil Imaging
Bus & Motor
CAST-2000, AOCS
Mass
805 kg wet, ~700 kg dry
Launch date (UTC)
2018-03-31 (8 years ago)
Launch vehicle
CHANG ZHENG 4C
Launch site
Taiyaun Space Center, China (TSC)
Object type
Payload
Rocket body
Debris
Shape & HBR
Box + 2 Pan, 2.0 m
Radar Cross Section
4.991 m², Large (>1 m²)

Expand to show TLE details & history
Last TLE update: 7 hours ago

TLE from 7 hours ago
0 GAOFEN 1-02
1 43259U 18031A   25295.62519882  .00000113  00000-0  23791-4 0  9991
2 43259  98.0881 353.3744 0003570  59.6863 300.4700 14.76418803407647
Epoch: 2025-10-22T15:00Z
TLE epoch observation values (Epoch: 2025-10-22T15:00:17.178Z)
Latitude
0.00008°
Longitude
97.00669°
Altitude
642.392 km
Speed
7.537 km/s
True Right ascension
23h 33m 29s
True Declination
0° 00' 00"
Sunlit
Object was in full shadow at epoch
Visualization orbit readout
Latitude
Unknown
Longitude
Unknown
Altitude
Unknown
Speed
Unknown
Apparent Right ascension
Unknown
Apparent Declination
Unknown
Sunlit
N/A
Visualization observer readout
Local Sidereal Time
17:11:53
Azimuth
Unknown
Elevation
Unknown
Doppler factor
Unknown
Orbital elements
Apogee altitude
640.21 km
Perigee altitude
635.201 km
Semi-major axis
7,015.842 km
Eccentricity
0.00036
Inclination
98.0881°
RAAN
353.3744°
Arg. of periapsis
59.6863°
True anomaly
300.43473°
Mean anomaly
300.47°
Eccentric anomaly
300.45237°
Mean motion
3.69338 °/min
Orbital period
97.47 mins
BSTAR
0.000023791
Loading maneuver chart data...
Computing Atmospheric mass density...
Loading historical data...
Loading historical data...
Loading historical data...
Loading historical data...
Loading historical data...
Loading historical data...
Loading historical data...

Documentation

Showing up to 5 results
|